Year,Month,Day,Hour,Minute,Value (Times are PST for temperature in C)
2014,07,16,00,00,18.90
2014,07,16,00,01,18.80
2014,07,16,00,02,18.80
2014,07,16,00,03,18.80
2014,07,16,00,04,18.80
2014,07,16,00,05,18.80
2014,07,16,00,06,18.80
2014,07,16,00,07,18.70
2014,07,16,00,08,18.70
2014,07,16,00,09,18.70
2014,07,16,00,10,18.70
2014,07,16,00,11,18.70
2014,07,16,00,12,18.70
2014,07,16,00,13,18.60
2014,07,16,00,14,18.60
2014,07,16,00,15,18.60
2014,07,16,00,16,18.60
2014,07,16,00,17,18.60
2014,07,16,00,18,18.60
2014,07,16,00,19,18.60
2014,07,16,00,20,18.50
2014,07,16,00,21,18.50
2014,07,16,00,22,18.50
2014,07,16,00,23,18.50
2014,07,16,00,24,18.40
2014,07,16,00,25,18.40
2014,07,16,00,26,18.40
2014,07,16,00,27,18.40
2014,07,16,00,28,18.30
2014,07,16,00,29,18.30
2014,07,16,00,30,18.30
2014,07,16,00,31,18.30
2014,07,16,00,32,18.30
2014,07,16,00,33,18.30
2014,07,16,00,34,18.20
2014,07,16,00,35,18.20
2014,07,16,00,36,18.20
2014,07,16,00,37,18.20
2014,07,16,00,38,18.20
2014,07,16,00,39,18.20
2014,07,16,00,40,18.20
2014,07,16,00,41,18.10
2014,07,16,00,42,18.10
2014,07,16,00,43,18.10
2014,07,16,00,44,18.10
2014,07,16,00,45,18.10
2014,07,16,00,46,18.10
2014,07,16,00,47,18.00
2014,07,16,00,48,18.00
2014,07,16,00,49,18.00
2014,07,16,00,50,17.90
2014,07,16,00,51,17.90
2014,07,16,00,52,17.90
2014,07,16,00,53,17.90
2014,07,16,00,54,17.90
2014,07,16,00,55,17.80
2014,07,16,00,56,17.80
2014,07,16,00,57,17.80
2014,07,16,00,58,17.80
2014,07,16,00,59,17.80
2014,07,16,01,00,17.80
2014,07,16,01,01,17.70
2014,07,16,01,02,17.70
2014,07,16,01,03,17.70
2014,07,16,01,04,17.70
2014,07,16,01,05,17.70
2014,07,16,01,06,17.60
2014,07,16,01,07,17.60
2014,07,16,01,08,17.60
2014,07,16,01,09,17.60
2014,07,16,01,10,17.60
2014,07,16,01,11,17.50
2014,07,16,01,12,17.50
2014,07,16,01,13,17.50
2014,07,16,01,14,17.50
2014,07,16,01,15,17.40
2014,07,16,01,16,17.40
2014,07,16,01,17,17.40
2014,07,16,01,18,17.40
2014,07,16,01,19,17.30
2014,07,16,01,20,17.30
2014,07,16,01,21,17.30
2014,07,16,01,22,17.30
2014,07,16,01,23,17.30
2014,07,16,01,24,17.20
2014,07,16,01,25,17.20
2014,07,16,01,26,17.20
2014,07,16,01,27,17.20
2014,07,16,01,28,17.20
2014,07,16,01,29,17.20
2014,07,16,01,30,17.10
2014,07,16,01,31,17.10
2014,07,16,01,32,17.10
2014,07,16,01,33,17.10
2014,07,16,01,34,17.10
2014,07,16,01,35,17.10
2014,07,16,01,36,17.10
2014,07,16,01,37,17.10
2014,07,16,01,38,17.10
2014,07,16,01,39,17.10
2014,07,16,01,40,17.10
2014,07,16,01,41,17.10
2014,07,16,01,42,17.00
2014,07,16,01,43,17.00
2014,07,16,01,44,17.00
2014,07,16,01,45,16.90
2014,07,16,01,46,16.90
2014,07,16,01,47,16.90
2014,07,16,01,48,16.90
2014,07,16,01,49,16.80
2014,07,16,01,50,16.80
2014,07,16,01,51,16.80
2014,07,16,01,52,16.80
2014,07,16,01,53,16.80
2014,07,16,01,54,16.70
2014,07,16,01,55,16.70
2014,07,16,01,56,16.70
2014,07,16,01,57,16.70
2014,07,16,01,58,16.70
2014,07,16,01,59,16.60
2014,07,16,02,00,16.60
2014,07,16,02,01,16.60
2014,07,16,02,02,16.60
2014,07,16,02,03,16.60
2014,07,16,02,04,16.50
2014,07,16,02,05,16.50
2014,07,16,02,06,16.50
2014,07,16,02,07,16.40
2014,07,16,02,08,16.40
2014,07,16,02,09,16.40
2014,07,16,02,10,16.40
2014,07,16,02,11,16.30
2014,07,16,02,12,16.30
2014,07,16,02,13,16.30
2014,07,16,02,14,16.30
2014,07,16,02,15,16.30
2014,07,16,02,16,16.30
2014,07,16,02,17,16.20
2014,07,16,02,18,16.20
2014,07,16,02,19,16.20
2014,07,16,02,20,16.20
2014,07,16,02,21,16.20
2014,07,16,02,22,16.20
2014,07,16,02,23,16.20
2014,07,16,02,24,16.10
2014,07,16,02,25,16.10
2014,07,16,02,26,16.10
2014,07,16,02,27,16.10
2014,07,16,02,28,16.10
2014,07,16,02,29,16.00
2014,07,16,02,30,16.00
2014,07,16,02,31,16.00
2014,07,16,02,32,16.00
2014,07,16,02,33,15.90
2014,07,16,02,34,15.90
2014,07,16,02,35,15.90
2014,07,16,02,36,15.90
2014,07,16,02,37,15.90
2014,07,16,02,38,15.90
2014,07,16,02,39,15.90
2014,07,16,02,40,15.80
2014,07,16,02,41,15.80
2014,07,16,02,42,15.80
2014,07,16,02,43,15.80
2014,07,16,02,44,15.80
2014,07,16,02,45,15.80
2014,07,16,02,46,15.80
2014,07,16,02,47,15.70
2014,07,16,02,48,15.70
2014,07,16,02,49,15.70
2014,07,16,02,50,15.70
2014,07,16,02,51,15.70
2014,07,16,02,52,15.70
2014,07,16,02,53,15.60
2014,07,16,02,54,15.60
2014,07,16,02,55,15.60
2014,07,16,02,56,15.60
2014,07,16,02,57,15.50
2014,07,16,02,58,15.50
2014,07,16,02,59,15.50
2014,07,16,03,00,15.50
2014,07,16,03,01,15.40
2014,07,16,03,02,15.40
2014,07,16,03,03,15.40
2014,07,16,03,04,15.40
2014,07,16,03,05,15.40
2014,07,16,03,06,15.30
2014,07,16,03,07,15.30
2014,07,16,03,08,15.30
2014,07,16,03,09,15.30
2014,07,16,03,10,15.30
2014,07,16,03,11,15.30
2014,07,16,03,12,15.20
2014,07,16,03,13,15.20
2014,07,16,03,14,15.20
2014,07,16,03,15,15.20
2014,07,16,03,16,15.20
2014,07,16,03,17,15.20
2014,07,16,03,18,15.20
2014,07,16,03,19,15.20
2014,07,16,03,20,15.10
2014,07,16,03,21,15.10
2014,07,16,03,22,15.10
2014,07,16,03,23,15.00
2014,07,16,03,24,15.00
2014,07,16,03,25,15.00
2014,07,16,03,26,15.00
2014,07,16,03,27,15.00
2014,07,16,03,28,15.00
2014,07,16,03,29,15.00
2014,07,16,03,30,15.00
2014,07,16,03,31,15.00
2014,07,16,03,32,15.00
2014,07,16,03,33,15.00
2014,07,16,03,34,15.00
2014,07,16,03,35,15.00
2014,07,16,03,36,15.00
2014,07,16,03,37,15.00
2014,07,16,03,38,15.00
2014,07,16,03,39,15.00
2014,07,16,03,40,15.00
2014,07,16,03,41,14.90
2014,07,16,03,42,14.90
2014,07,16,03,43,14.90
2014,07,16,03,44,14.80
2014,07,16,03,45,14.80
2014,07,16,03,46,14.80
2014,07,16,03,47,14.80
2014,07,16,03,48,14.80
2014,07,16,03,49,14.70
2014,07,16,03,50,14.70
2014,07,16,03,51,14.70
2014,07,16,03,52,14.70
2014,07,16,03,53,14.60
2014,07,16,03,54,14.60
2014,07,16,03,55,14.60
2014,07,16,03,56,14.60
2014,07,16,03,57,14.60
2014,07,16,03,58,14.50
2014,07,16,03,59,14.50
2014,07,16,04,00,14.40
2014,07,16,04,01,14.40
2014,07,16,04,02,14.40
2014,07,16,04,03,14.40
2014,07,16,04,04,14.40
2014,07,16,04,05,14.40
2014,07,16,04,06,14.40
2014,07,16,04,07,14.30
2014,07,16,04,08,14.30
2014,07,16,04,09,14.30
2014,07,16,04,10,14.30
2014,07,16,04,11,14.30
2014,07,16,04,12,14.30
2014,07,16,04,13,14.30
2014,07,16,04,14,14.20
2014,07,16,04,15,14.20
2014,07,16,04,16,14.20
2014,07,16,04,17,14.20
2014,07,16,04,18,14.20
2014,07,16,04,19,14.20
2014,07,16,04,20,14.20
2014,07,16,04,21,14.10
2014,07,16,04,22,14.10
2014,07,16,04,23,14.10
2014,07,16,04,24,14.10
2014,07,16,04,25,14.10
2014,07,16,04,26,14.10
2014,07,16,04,27,14.10
2014,07,16,04,28,14.00
2014,07,16,04,29,14.00
2014,07,16,04,30,14.00
2014,07,16,04,31,13.90
2014,07,16,04,32,13.90
2014,07,16,04,33,13.90
2014,07,16,04,34,13.90
2014,07,16,04,35,13.90
2014,07,16,04,36,13.90
2014,07,16,04,37,13.90
2014,07,16,04,38,13.80
2014,07,16,04,39,13.80
2014,07,16,04,40,13.80
2014,07,16,04,41,13.80
2014,07,16,04,42,13.80
2014,07,16,04,43,13.80
2014,07,16,04,44,13.70
2014,07,16,04,45,13.70
2014,07,16,04,46,13.70
2014,07,16,04,47,13.70
2014,07,16,04,48,13.70
2014,07,16,04,49,13.70
2014,07,16,04,50,13.70
2014,07,16,04,51,13.60
2014,07,16,04,52,13.60
2014,07,16,04,53,13.60
2014,07,16,04,54,13.60
2014,07,16,04,55,13.60
2014,07,16,04,56,13.60
2014,07,16,04,57,13.60
2014,07,16,04,58,13.60
2014,07,16,04,59,13.60
2014,07,16,05,00,13.60
2014,07,16,05,01,13.50
2014,07,16,05,02,13.50
2014,07,16,05,03,13.50
2014,07,16,05,04,13.50
2014,07,16,05,05,13.50
2014,07,16,05,06,13.50
2014,07,16,05,07,13.40
2014,07,16,05,08,13.40
2014,07,16,05,09,13.40
2014,07,16,05,10,13.40
2014,07,16,05,11,13.40
2014,07,16,05,12,13.40
2014,07,16,05,13,13.40
2014,07,16,05,14,13.30
2014,07,16,05,15,13.30
2014,07,16,05,16,13.30
2014,07,16,05,17,13.30
2014,07,16,05,18,13.30
2014,07,16,05,19,13.30
2014,07,16,05,20,13.30
2014,07,16,05,21,13.30
2014,07,16,05,22,13.30
2014,07,16,05,23,13.30
2014,07,16,05,24,13.30
2014,07,16,05,25,13.30
2014,07,16,05,26,13.30
2014,07,16,05,27,13.30
2014,07,16,05,28,13.20
2014,07,16,05,29,13.20
2014,07,16,05,30,13.20
2014,07,16,05,31,13.20
2014,07,16,05,32,13.20
2014,07,16,05,33,13.20
2014,07,16,05,34,13.10
2014,07,16,05,35,13.10
2014,07,16,05,36,13.10
2014,07,16,05,37,13.10
2014,07,16,05,38,13.10
2014,07,16,05,39,13.10
2014,07,16,05,40,13.00
2014,07,16,05,41,13.00
2014,07,16,05,42,13.00
2014,07,16,05,43,12.90
2014,07,16,05,44,12.90
2014,07,16,05,45,12.90
2014,07,16,05,46,12.90
2014,07,16,05,47,12.90
2014,07,16,05,48,12.90
2014,07,16,05,49,12.90
2014,07,16,05,50,12.90
2014,07,16,05,51,12.90
2014,07,16,05,52,12.90
2014,07,16,05,53,12.90
2014,07,16,05,54,12.90
2014,07,16,05,55,12.90
2014,07,16,05,56,12.90
2014,07,16,05,57,12.90
2014,07,16,05,58,12.80
2014,07,16,05,59,12.80
2014,07,16,06,00,12.80
2014,07,16,06,01,12.80
2014,07,16,06,02,12.80
2014,07,16,06,03,12.80
2014,07,16,06,04,12.80
2014,07,16,06,05,12.80
2014,07,16,06,06,12.80
2014,07,16,06,07,12.80
2014,07,16,06,08,12.80
2014,07,16,06,09,12.80
2014,07,16,06,10,12.80
2014,07,16,06,11,12.80
2014,07,16,06,12,12.80
2014,07,16,06,13,12.70
2014,07,16,06,14,12.70
2014,07,16,06,15,12.70
2014,07,16,06,16,12.70
2014,07,16,06,17,12.70
2014,07,16,06,18,12.70
2014,07,16,06,19,12.70
2014,07,16,06,20,12.70
2014,07,16,06,21,12.70
2014,07,16,06,22,12.70
2014,07,16,06,23,12.70
2014,07,16,06,24,12.70
2014,07,16,06,25,12.70
2014,07,16,06,26,12.70
2014,07,16,06,27,12.70
2014,07,16,06,28,12.70
2014,07,16,06,29,12.70
2014,07,16,06,30,12.70
2014,07,16,06,31,12.70
2014,07,16,06,32,12.70
2014,07,16,06,33,12.70
2014,07,16,06,34,12.70
2014,07,16,06,35,12.70
2014,07,16,06,36,12.70
2014,07,16,06,37,12.70
2014,07,16,06,38,12.70
2014,07,16,06,39,12.70
2014,07,16,06,40,12.70
2014,07,16,06,41,12.70
2014,07,16,06,42,12.70
2014,07,16,06,43,12.70
2014,07,16,06,44,12.70
2014,07,16,06,45,12.70
2014,07,16,06,46,12.70
2014,07,16,06,47,12.70
2014,07,16,06,48,12.70
2014,07,16,06,49,12.70
2014,07,16,06,50,12.70
2014,07,16,06,51,12.70
2014,07,16,06,52,12.70
2014,07,16,06,53,12.70
2014,07,16,06,54,12.80
2014,07,16,06,55,12.80
2014,07,16,06,56,12.80
2014,07,16,06,57,12.80
2014,07,16,06,58,12.80
2014,07,16,06,59,12.80
2014,07,16,07,00,12.80
2014,07,16,07,01,12.80
2014,07,16,07,02,12.80
2014,07,16,07,03,12.90
2014,07,16,07,04,12.90
2014,07,16,07,05,12.90
2014,07,16,07,06,12.90
2014,07,16,07,07,12.90
2014,07,16,07,08,12.90
2014,07,16,07,09,13.00
2014,07,16,07,10,13.00
2014,07,16,07,11,13.00
2014,07,16,07,12,13.10
2014,07,16,07,13,13.10
2014,07,16,07,14,13.10
2014,07,16,07,15,13.20
2014,07,16,07,16,13.20
2014,07,16,07,17,13.20
2014,07,16,07,18,13.30
2014,07,16,07,19,13.30
2014,07,16,07,20,13.30
2014,07,16,07,21,13.40
2014,07,16,07,22,13.40
2014,07,16,07,23,13.50
2014,07,16,07,24,13.60
2014,07,16,07,25,13.70
2014,07,16,07,26,13.70
2014,07,16,07,27,13.80
2014,07,16,07,28,13.80
2014,07,16,07,29,13.90
2014,07,16,07,30,13.90
2014,07,16,07,31,14.00
2014,07,16,07,32,14.00
2014,07,16,07,33,14.10
2014,07,16,07,34,14.20
2014,07,16,07,35,14.20
2014,07,16,07,36,14.30
2014,07,16,07,37,14.30
2014,07,16,07,38,14.40
2014,07,16,07,39,14.40
2014,07,16,07,40,14.50
2014,07,16,07,41,14.50
2014,07,16,07,42,14.60
2014,07,16,07,43,14.60
2014,07,16,07,44,14.70
2014,07,16,07,45,14.70
2014,07,16,07,46,14.80
2014,07,16,07,47,14.80
2014,07,16,07,48,14.90
2014,07,16,07,49,15.00
2014,07,16,07,50,15.00
2014,07,16,07,51,15.00
2014,07,16,07,52,15.00
2014,07,16,07,53,15.00
2014,07,16,07,54,15.00
2014,07,16,07,55,15.10
2014,07,16,07,56,15.10
2014,07,16,07,57,15.20
2014,07,16,07,58,15.30
2014,07,16,07,59,15.30
2014,07,16,08,00,15.40
2014,07,16,08,01,15.50
2014,07,16,08,02,15.50
2014,07,16,08,03,15.60
2014,07,16,08,04,15.70
2014,07,16,08,05,15.80
2014,07,16,08,06,15.90
2014,07,16,08,07,16.10
2014,07,16,08,08,16.20
2014,07,16,08,09,16.30
2014,07,16,08,10,16.40
2014,07,16,08,11,16.50
2014,07,16,08,12,16.60
2014,07,16,08,13,16.70
2014,07,16,08,14,16.80
2014,07,16,08,15,17.00
2014,07,16,08,16,17.10
2014,07,16,08,17,17.20
2014,07,16,08,18,17.30
2014,07,16,08,19,17.40
2014,07,16,08,20,17.60
2014,07,16,08,21,17.70
2014,07,16,08,22,17.80
2014,07,16,08,23,17.90
2014,07,16,08,24,18.00
2014,07,16,08,25,18.20
2014,07,16,08,26,18.30
2014,07,16,08,27,18.50
2014,07,16,08,28,18.60
2014,07,16,08,29,18.80
2014,07,16,08,30,18.90
2014,07,16,08,31,19.10
2014,07,16,08,32,19.30
2014,07,16,08,33,19.40
2014,07,16,08,34,19.60
2014,07,16,08,35,19.60
2014,07,16,08,36,19.70
2014,07,16,08,37,19.80
2014,07,16,08,38,19.80
2014,07,16,08,39,19.90
2014,07,16,08,40,19.90
2014,07,16,08,41,20.00
2014,07,16,08,42,20.10
2014,07,16,08,43,20.10
2014,07,16,08,44,20.10
2014,07,16,08,45,20.20
2014,07,16,08,46,20.20
2014,07,16,08,47,20.20
2014,07,16,08,48,20.30
2014,07,16,08,49,20.40
2014,07,16,08,50,20.50
2014,07,16,08,51,20.60
2014,07,16,08,52,20.70
2014,07,16,08,53,20.70
2014,07,16,08,54,20.80
2014,07,16,08,55,20.90
2014,07,16,08,56,20.90
2014,07,16,08,57,21.00
2014,07,16,08,58,21.10
2014,07,16,08,59,21.20
2014,07,16,09,00,21.20
2014,07,16,09,01,21.30
2014,07,16,09,02,21.30
2014,07,16,09,03,21.30
2014,07,16,09,04,21.30
2014,07,16,09,05,21.40
2014,07,16,09,06,21.40
2014,07,16,09,07,21.40
2014,07,16,09,08,21.40
2014,07,16,09,09,21.50
2014,07,16,09,10,21.50
2014,07,16,09,11,21.60
2014,07,16,09,12,21.70
2014,07,16,09,13,21.80
2014,07,16,09,14,21.80
2014,07,16,09,15,21.80
2014,07,16,09,16,21.80
2014,07,16,09,17,21.90
2014,07,16,09,18,21.90
2014,07,16,09,19,22.00
2014,07,16,09,20,22.00
2014,07,16,09,21,22.10
2014,07,16,09,22,22.10
2014,07,16,09,23,22.20
2014,07,16,09,24,22.20
2014,07,16,09,25,22.20
2014,07,16,09,26,22.30
2014,07,16,09,27,22.30
2014,07,16,09,28,22.40
2014,07,16,09,29,22.40
2014,07,16,09,30,22.50
2014,07,16,09,31,22.50
2014,07,16,09,32,22.60
2014,07,16,09,33,22.70
2014,07,16,09,34,22.80
2014,07,16,09,35,22.80
2014,07,16,09,36,22.90
2014,07,16,09,37,22.90
2014,07,16,09,38,23.00
2014,07,16,09,39,23.10
2014,07,16,09,40,23.20
2014,07,16,09,41,23.30
2014,07,16,09,42,23.30
2014,07,16,09,43,23.40
2014,07,16,09,44,23.40
2014,07,16,09,45,23.50
2014,07,16,09,46,23.50
2014,07,16,09,47,23.50
2014,07,16,09,48,23.50
2014,07,16,09,49,23.40
2014,07,16,09,50,23.40
2014,07,16,09,51,23.50
2014,07,16,09,52,23.50
2014,07,16,09,53,23.60
2014,07,16,09,54,23.60
2014,07,16,09,55,23.70
2014,07,16,09,56,23.80
2014,07,16,09,57,23.80
2014,07,16,09,58,24.00
2014,07,16,09,59,24.10
2014,07,16,10,00,24.20
2014,07,16,10,01,24.20
2014,07,16,10,02,24.30
2014,07,16,10,03,24.30
2014,07,16,10,04,24.40
2014,07,16,10,05,24.40
2014,07,16,10,06,24.50
2014,07,16,10,07,24.60
2014,07,16,10,08,24.70
2014,07,16,10,09,24.80
2014,07,16,10,10,24.80
2014,07,16,10,11,24.90
2014,07,16,10,12,25.00
2014,07,16,10,13,25.00
2014,07,16,10,14,25.10
2014,07,16,10,15,25.10
2014,07,16,10,16,25.10
2014,07,16,10,17,25.10
2014,07,16,10,18,25.10
2014,07,16,10,19,25.00
2014,07,16,10,20,25.00
2014,07,16,10,21,25.10
2014,07,16,10,22,25.10
2014,07,16,10,23,25.10
2014,07,16,10,24,25.20
2014,07,16,10,25,25.20
2014,07,16,10,26,25.20
2014,07,16,10,27,25.20
2014,07,16,10,28,25.30
2014,07,16,10,29,25.40
2014,07,16,10,30,25.50
2014,07,16,10,31,25.60
2014,07,16,10,32,25.70
2014,07,16,10,33,25.80
2014,07,16,10,34,25.90
2014,07,16,10,35,25.90
2014,07,16,10,36,25.90
2014,07,16,10,37,25.90
2014,07,16,10,38,25.90
2014,07,16,10,39,26.00
2014,07,16,10,40,26.10
2014,07,16,10,41,26.10
2014,07,16,10,42,26.20
2014,07,16,10,43,26.20
2014,07,16,10,44,26.20
2014,07,16,10,45,26.20
2014,07,16,10,46,26.10
2014,07,16,10,47,26.10
2014,07,16,10,48,26.10
2014,07,16,10,49,26.20
2014,07,16,10,50,26.30
2014,07,16,10,51,26.40
2014,07,16,10,52,26.40
2014,07,16,10,53,26.40
2014,07,16,10,54,26.40
2014,07,16,10,55,26.30
2014,07,16,10,56,26.30
2014,07,16,10,57,26.30
2014,07,16,10,58,26.30
2014,07,16,10,59,26.30
2014,07,16,11,00,26.40
2014,07,16,11,01,26.50
2014,07,16,11,02,26.60
2014,07,16,11,03,26.70
2014,07,16,11,04,26.70
2014,07,16,11,05,26.70
2014,07,16,11,06,26.60
2014,07,16,11,07,26.60
2014,07,16,11,08,26.50
2014,07,16,11,09,26.60
2014,07,16,11,10,26.60
2014,07,16,11,11,26.60
2014,07,16,11,12,26.70
2014,07,16,11,13,26.70
2014,07,16,11,14,26.80
2014,07,16,11,15,26.90
2014,07,16,11,16,27.00
2014,07,16,11,17,27.10
2014,07,16,11,18,27.20
2014,07,16,11,19,27.20
2014,07,16,11,20,27.30
2014,07,16,11,21,27.30
2014,07,16,11,22,27.40
2014,07,16,11,23,27.40
2014,07,16,11,24,27.40
2014,07,16,11,25,27.40
2014,07,16,11,26,27.30
2014,07,16,11,27,27.30
2014,07,16,11,28,27.20
2014,07,16,11,29,27.30
2014,07,16,11,30,27.30
2014,07,16,11,31,27.40
2014,07,16,11,32,27.50
2014,07,16,11,33,27.50
2014,07,16,11,34,27.70
2014,07,16,11,35,27.80
2014,07,16,11,36,27.80
2014,07,16,11,37,27.80
2014,07,16,11,38,27.90
2014,07,16,11,39,27.90
2014,07,16,11,40,27.80
2014,07,16,11,41,27.80
2014,07,16,11,42,27.80
2014,07,16,11,43,27.90
2014,07,16,11,44,28.00
2014,07,16,11,45,28.10
2014,07,16,11,46,28.20
2014,07,16,11,47,28.40
2014,07,16,11,48,28.50
2014,07,16,11,49,28.60
2014,07,16,11,50,28.70
2014,07,16,11,51,28.80
2014,07,16,11,52,28.80
2014,07,16,11,53,28.80
2014,07,16,11,54,28.70
2014,07,16,11,55,28.70
2014,07,16,11,56,28.60
2014,07,16,11,57,28.50
2014,07,16,11,58,28.50
2014,07,16,11,59,28.50
2014,07,16,12,00,28.50
2014,07,16,12,01,28.50
2014,07,16,12,02,28.40
2014,07,16,12,03,28.40
2014,07,16,12,04,28.40
2014,07,16,12,05,28.40
2014,07,16,12,06,28.50
2014,07,16,12,07,28.50
2014,07,16,12,08,28.50
2014,07,16,12,09,28.50
2014,07,16,12,10,28.60
2014,07,16,12,11,28.70
2014,07,16,12,12,28.80
2014,07,16,12,13,28.90
2014,07,16,12,14,29.00
2014,07,16,12,15,29.10
2014,07,16,12,16,29.20
2014,07,16,12,17,29.20
2014,07,16,12,18,29.30
2014,07,16,12,19,29.30
2014,07,16,12,20,29.30
2014,07,16,12,21,29.40
2014,07,16,12,22,29.50
2014,07,16,12,23,29.60
2014,07,16,12,24,29.60
2014,07,16,12,25,29.60
2014,07,16,12,26,29.60
2014,07,16,12,27,29.70
2014,07,16,12,28,29.70
2014,07,16,12,29,29.60
2014,07,16,12,30,29.60
2014,07,16,12,31,29.60
2014,07,16,12,32,29.50
2014,07,16,12,33,29.60
2014,07,16,12,34,29.60
2014,07,16,12,35,29.50
2014,07,16,12,36,29.50
2014,07,16,12,37,29.40
2014,07,16,12,38,29.50
2014,07,16,12,39,29.50
2014,07,16,12,40,29.60
2014,07,16,12,41,29.60
2014,07,16,12,42,29.70
2014,07,16,12,43,29.80
2014,07,16,12,44,29.90
2014,07,16,12,45,29.90
2014,07,16,12,46,29.90
2014,07,16,12,47,30.10
2014,07,16,12,48,30.10
2014,07,16,12,49,30.10
2014,07,16,12,50,30.20
2014,07,16,12,51,30.20
2014,07,16,12,52,30.20
2014,07,16,12,53,30.20
2014,07,16,12,54,30.20
2014,07,16,12,55,30.20
2014,07,16,12,56,30.30
2014,07,16,12,57,30.30
2014,07,16,12,58,30.30
2014,07,16,12,59,30.40
2014,07,16,13,00,30.30
2014,07,16,13,01,30.30
2014,07,16,13,02,30.30
2014,07,16,13,03,30.30
2014,07,16,13,04,30.20
2014,07,16,13,05,30.10
2014,07,16,13,06,30.10
2014,07,16,13,07,30.10
2014,07,16,13,08,30.10
2014,07,16,13,09,30.10
2014,07,16,13,10,30.10
2014,07,16,13,11,30.10
2014,07,16,13,12,30.10
2014,07,16,13,13,30.10
2014,07,16,13,14,30.00
2014,07,16,13,15,30.00
2014,07,16,13,16,29.90
2014,07,16,13,17,29.90
2014,07,16,13,18,29.90
2014,07,16,13,19,29.90
2014,07,16,13,20,29.90
2014,07,16,13,21,29.90
2014,07,16,13,22,30.00
2014,07,16,13,23,30.00
2014,07,16,13,24,30.10
2014,07,16,13,25,30.10
2014,07,16,13,26,30.10
2014,07,16,13,27,30.10
2014,07,16,13,28,30.10
2014,07,16,13,29,30.10
2014,07,16,13,30,30.20
2014,07,16,13,31,30.40
2014,07,16,13,32,30.60
2014,07,16,13,33,30.70
2014,07,16,13,34,30.90
2014,07,16,13,35,31.00
2014,07,16,13,36,31.10
2014,07,16,13,37,31.10
2014,07,16,13,38,31.20
2014,07,16,13,39,31.20
2014,07,16,13,40,31.30
2014,07,16,13,41,31.30
2014,07,16,13,42,31.20
2014,07,16,13,43,31.10
2014,07,16,13,44,31.00
2014,07,16,13,45,30.90
2014,07,16,13,46,30.80
2014,07,16,13,47,30.80
2014,07,16,13,48,30.80
2014,07,16,13,49,30.80
2014,07,16,13,50,30.80
2014,07,16,13,51,30.80
2014,07,16,13,52,30.80
2014,07,16,13,53,30.80
2014,07,16,13,54,30.80
2014,07,16,13,55,30.80
2014,07,16,13,56,30.80
2014,07,16,13,57,30.90
2014,07,16,13,58,31.00
2014,07,16,13,59,31.10
2014,07,16,14,00,31.30
2014,07,16,14,01,31.60
2014,07,16,14,02,31.70
2014,07,16,14,03,31.80
2014,07,16,14,04,31.90
2014,07,16,14,05,31.90
2014,07,16,14,06,31.90
2014,07,16,14,07,31.90
2014,07,16,14,08,31.90
2014,07,16,14,09,31.90
2014,07,16,14,10,31.90
2014,07,16,14,11,32.00
2014,07,16,14,12,32.00
2014,07,16,14,13,32.00
2014,07,16,14,14,31.90
2014,07,16,14,15,31.90
2014,07,16,14,16,32.00
2014,07,16,14,17,32.00
2014,07,16,14,18,31.80
2014,07,16,14,19,31.70
2014,07,16,14,20,31.60
2014,07,16,14,21,31.50
2014,07,16,14,22,31.40
2014,07,16,14,23,31.40
2014,07,16,14,24,31.30
2014,07,16,14,25,31.30
2014,07,16,14,26,31.30
2014,07,16,14,27,31.20
2014,07,16,14,28,31.20
2014,07,16,14,29,31.20
2014,07,16,14,30,31.20
2014,07,16,14,31,31.20
2014,07,16,14,32,31.10
2014,07,16,14,33,31.10
2014,07,16,14,34,31.10
2014,07,16,14,35,31.10
2014,07,16,14,36,31.20
2014,07,16,14,37,31.10
2014,07,16,14,38,31.10
2014,07,16,14,39,31.10
2014,07,16,14,40,31.20
2014,07,16,14,41,31.20
2014,07,16,14,42,31.10
2014,07,16,14,43,31.10
2014,07,16,14,44,30.90
2014,07,16,14,45,30.80
2014,07,16,14,46,30.80
2014,07,16,14,47,30.80
2014,07,16,14,48,30.80
2014,07,16,14,49,30.70
2014,07,16,14,50,30.60
2014,07,16,14,51,30.60
2014,07,16,14,52,30.60
2014,07,16,14,53,30.60
2014,07,16,14,54,30.70
2014,07,16,14,55,30.60
2014,07,16,14,56,30.60
2014,07,16,14,57,30.60
2014,07,16,14,58,30.60
2014,07,16,14,59,30.60
2014,07,16,15,00,30.60
2014,07,16,15,01,30.60
2014,07,16,15,02,30.50
2014,07,16,15,03,30.40
2014,07,16,15,04,30.40
2014,07,16,15,05,30.40
2014,07,16,15,06,30.40
2014,07,16,15,07,30.30
2014,07,16,15,08,30.40
2014,07,16,15,09,30.40
2014,07,16,15,10,30.40
2014,07,16,15,11,30.40
2014,07,16,15,12,30.40
2014,07,16,15,13,30.40
2014,07,16,15,14,30.40
2014,07,16,15,15,30.40
2014,07,16,15,16,30.40
2014,07,16,15,17,30.30
2014,07,16,15,18,30.30
2014,07,16,15,19,30.30
2014,07,16,15,20,30.30
2014,07,16,15,21,30.30
2014,07,16,15,22,30.40
2014,07,16,15,23,30.40
2014,07,16,15,24,30.40
2014,07,16,15,25,30.40
2014,07,16,15,26,30.50
2014,07,16,15,27,30.50
2014,07,16,15,28,30.50
2014,07,16,15,29,30.60
2014,07,16,15,30,30.60
2014,07,16,15,31,30.60
2014,07,16,15,32,30.60
2014,07,16,15,33,30.60
2014,07,16,15,34,30.60
2014,07,16,15,35,30.60
2014,07,16,15,36,30.60
2014,07,16,15,37,30.60
2014,07,16,15,38,30.70
2014,07,16,15,39,30.60
2014,07,16,15,40,30.60
2014,07,16,15,41,30.60
2014,07,16,15,42,30.60
2014,07,16,15,43,30.60
2014,07,16,15,44,30.60
2014,07,16,15,45,30.60
2014,07,16,15,46,30.60
2014,07,16,15,47,30.50
2014,07,16,15,48,30.40
2014,07,16,15,49,30.40
2014,07,16,15,50,30.50
2014,07,16,15,51,30.50
2014,07,16,15,52,30.60
2014,07,16,15,53,30.60
2014,07,16,15,54,30.60
2014,07,16,15,55,30.60
2014,07,16,15,56,30.60
2014,07,16,15,57,30.60
2014,07,16,15,58,30.60
2014,07,16,15,59,30.60
2014,07,16,16,00,30.60
2014,07,16,16,01,30.60
2014,07,16,16,02,30.70
2014,07,16,16,03,30.70
2014,07,16,16,04,30.70
2014,07,16,16,05,30.60
2014,07,16,16,06,30.60
2014,07,16,16,07,30.60
2014,07,16,16,08,30.60
2014,07,16,16,09,30.60
2014,07,16,16,10,30.60
2014,07,16,16,11,30.60
2014,07,16,16,12,30.60
2014,07,16,16,13,30.60
2014,07,16,16,14,30.60
2014,07,16,16,15,30.60
2014,07,16,16,16,30.60
2014,07,16,16,17,30.50
2014,07,16,16,18,30.50
2014,07,16,16,19,30.40
2014,07,16,16,20,30.40
2014,07,16,16,21,30.40
2014,07,16,16,22,30.40
2014,07,16,16,23,30.50
2014,07,16,16,24,30.50
2014,07,16,16,25,30.60
2014,07,16,16,26,30.60
2014,07,16,16,27,30.60
2014,07,16,16,28,30.60
2014,07,16,16,29,30.60
2014,07,16,16,30,30.60
2014,07,16,16,31,30.60
2014,07,16,16,32,30.60
2014,07,16,16,33,30.60
2014,07,16,16,34,30.60
2014,07,16,16,35,30.60
2014,07,16,16,36,30.50
2014,07,16,16,37,30.40
2014,07,16,16,38,30.40
2014,07,16,16,39,30.40
2014,07,16,16,40,30.30
2014,07,16,16,41,30.30
2014,07,16,16,42,30.30
2014,07,16,16,43,30.20
2014,07,16,16,44,30.20
2014,07,16,16,45,30.20
2014,07,16,16,46,30.20
2014,07,16,16,47,30.20
2014,07,16,16,48,30.20
2014,07,16,16,49,30.20
2014,07,16,16,50,30.20
2014,07,16,16,51,30.10
2014,07,16,16,52,30.10
2014,07,16,16,53,30.10
2014,07,16,16,54,30.10
2014,07,16,16,55,30.10
2014,07,16,16,56,30.10
2014,07,16,16,57,30.00
2014,07,16,16,58,30.10
2014,07,16,16,59,30.10
2014,07,16,17,00,30.10
2014,07,16,17,01,30.10
2014,07,16,17,02,30.10
2014,07,16,17,03,30.20
2014,07,16,17,04,30.20
2014,07,16,17,05,30.20
2014,07,16,17,06,30.20
2014,07,16,17,07,30.20
2014,07,16,17,08,30.20
2014,07,16,17,09,30.20
2014,07,16,17,10,30.20
2014,07,16,17,11,30.20
2014,07,16,17,12,30.20
2014,07,16,17,13,30.20
2014,07,16,17,14,30.20
2014,07,16,17,15,30.20
2014,07,16,17,16,30.10
2014,07,16,17,17,30.10
2014,07,16,17,18,30.10
2014,07,16,17,19,30.00